Location: Mahannah Oil Field
(37.4664°N, 96.6003°W)
Time: 21:57:54
(UTC+00:00)

Courier 1B Rocket - Visible Passes

Search period start: 21 January 2021 00:00
Search period end: 31 January 2021 00:00
Orbit: 920 x 1202 km, 28.2° (Epoch: 20 January)

Date Brightness Start Highest point End Pass type
(mag) Time Alt. Az. Time Alt. Az. Time Alt. Az.
21 Jan 7.6 12:10:46 10° S 12:13:37 13° SSE 12:16:32 10° SE visible
22 Jan 7.2 13:00:00 10° SSW 13:05:18 24° SSE 13:10:53 10° ESE visible
23 Jan 7.3 12:00:12 10° SSW 12:04:29 18° SSE 12:08:56 10° ESE visible
24 Jan 7.4 11:01:20 10° S 11:03:44 12° SSE 11:06:11 10° SE visible
24 Jan 6.8 12:50:35 10° SW 12:56:14 29° SSE 13:02:14 10° ESE visible
25 Jan 6.9 11:50:25 10° SSW 11:55:24 23° SSE 12:00:38 10° ESE visible
26 Jan 7.0 10:52:33 15° S 10:54:39 17° SSE 10:58:45 10° ESE visible
26 Jan 6.5 12:41:26 10° SW 12:47:15 34° SSE 12:53:26 10° ESE visible
27 Jan 7.5 09:55:39 10° SE 09:55:39 10° SE 09:56:00 10° SE visible
27 Jan 6.5 11:42:03 14° SW 11:46:24 28° SSE 11:52:03 10° ESE visible
28 Jan 6.6 10:45:04 22° SSE 10:45:36 22° SSE 10:50:32 10° ESE visible
28 Jan 6.2 12:32:27 10° WSW 12:38:19 37° S 12:44:34 10° ESE visible
29 Jan 7.5 09:48:01 12° SE 09:48:01 12° SE 09:48:44 10° ESE visible
29 Jan 6.2 11:34:23 22° SSW 11:37:27 32° S 11:43:18 10° ESE visible
30 Jan 6.4 10:37:17 27° SSE 10:37:17 27° SSE 10:42:00 10° ESE visible
30 Jan 6.1 12:23:40 10° WSW 12:29:24 37° S 12:35:36 10° ESE visible
